VOE83MR LEAL-LFRS

Flight info

Callsign VOE83MR
Flight time 1h 31m
Altitude 36000
Route MITOS N608 COMPI Y90 USKAR N863 GIROM DCT AGN/N0430F340 DCT SECHE DCT UVELI DCT CNA DCT MANAK
Aircraft A320/M-SDE3FGHIRWY/LB1

Departure

Time 2026-05-07 15:21
Airport Alicante-Elche Miguel Hernández Airport (LEAL)

Arrival

Time 2026-05-07 16:53
Airport Nantes Atlantique Airport (LFRS)
Time Latitude Longitude Altitude Speed Heading
2026-05-07 14:54 38.28588 -0.55719 100 ft 0 kts 10°
2026-05-07 15:09 38.28581 -0.55721 98 ft 4 kts
2026-05-07 15:09 38.28554 -0.55725 97 ft 4 kts 359°
2026-05-07 15:09 38.28528 -0.55720 97 ft 4 kts 330°
2026-05-07 15:09 38.28515 -0.55703 96 ft 1 kts 280°
2026-05-07 15:14 38.28517 -0.55717 96 ft 2 kts 279°
2026-05-07 15:15 38.28521 -0.55747 98 ft 7 kts 280°
2026-05-07 15:15 38.28533 -0.55834 100 ft 12 kts 280°
2026-05-07 15:15 38.28547 -0.55927 100 ft 10 kts 280°
2026-05-07 15:15 38.28536 -0.55990 99 ft 4 kts 234°
2026-05-07 15:16 38.28506 -0.56023 102 ft 12 kts 205°
2026-05-07 15:16 38.28442 -0.56055 107 ft 7 kts 221°
2026-05-07 15:16 38.28442 -0.56160 107 ft 19 kts 283°
2026-05-07 15:16 38.28453 -0.56303 111 ft 12 kts 278°
2026-05-07 15:17 38.28464 -0.56389 114 ft 7 kts 280°
2026-05-07 15:17 38.28474 -0.56460 114 ft 10 kts 279°
2026-05-07 15:17 38.28491 -0.56560 118 ft 14 kts 285°
2026-05-07 15:17 38.28510 -0.56705 122 ft 19 kts 275°
2026-05-07 15:18 38.28538 -0.56881 131 ft 21 kts 283°
2026-05-07 15:18 38.28564 -0.57070 139 ft 23 kts 279°
2026-05-07 15:18 38.28599 -0.57275 148 ft 24 kts 283°
2026-05-07 15:18 38.28578 -0.57419 153 ft 10 kts 216°
2026-05-07 15:19 38.28524 -0.57432 155 ft 7 kts 188°
2026-05-07 15:19 38.28455 -0.57427 154 ft 12 kts 155°
2026-05-07 15:19 38.28439 -0.57407 153 ft 4 kts 128°
2026-05-07 15:19 38.28435 -0.57385 152 ft 0 kts 102°
2026-05-07 15:21 38.28424 -0.57307 148 ft 37 kts 99°
2026-05-07 15:21 38.28317 -0.56546 118 ft 134 kts 99°
2026-05-07 15:21 38.28142 -0.55174 527 ft 167 kts 99°
2026-05-07 15:21 38.27950 -0.53631 1274 ft 186 kts 98°
2026-05-07 15:22 38.27797 -0.51945 2123 ft 195 kts 98°
2026-05-07 15:22 38.27555 -0.50188 2612 ft 211 kts 96°
2026-05-07 15:22 38.27615 -0.48238 3015 ft 234 kts 77°
2026-05-07 15:22 38.28292 -0.46301 3564 ft 252 kts 57°
2026-05-07 15:23 38.29264 -0.44408 4458 ft 258 kts 56°
2026-05-07 15:23 38.30259 -0.42489 5390 ft 261 kts 56°
2026-05-07 15:23 38.31267 -0.40542 6317 ft 265 kts 57°
2026-05-07 15:23 38.32289 -0.38569 7225 ft 269 kts 56°
2026-05-07 15:24 38.33321 -0.36569 8106 ft 272 kts 59°
2026-05-07 15:24 38.34130 -0.34372 8972 ft 276 kts 68°
2026-05-07 15:24 38.34835 -0.32084 9820 ft 279 kts 69°
2026-05-07 15:24 38.35557 -0.29736 10417 ft 294 kts 69°
2026-05-07 15:25 38.36324 -0.27246 10726 ft 317 kts 68°
2026-05-07 15:25 38.37178 -0.24608 11331 ft 326 kts 67°
2026-05-07 15:25 38.38073 -0.21929 12087 ft 331 kts 66°
2026-05-07 15:25 38.38988 -0.19223 12843 ft 334 kts 66°
2026-05-07 15:26 38.39914 -0.16483 13581 ft 338 kts 66°
2026-05-07 15:26 38.40847 -0.13714 14290 ft 342 kts 67°
2026-05-07 15:26 38.41784 -0.10914 14985 ft 345 kts 67°
2026-05-07 15:26 38.42737 -0.08128 15649 ft 349 kts 63°
2026-05-07 15:27 38.44097 -0.05554 16293 ft 353 kts 48°
2026-05-07 15:27 38.45937 -0.03481 16925 ft 356 kts 33°
2026-05-07 15:27 38.48151 -0.02051 17546 ft 359 kts 19°
2026-05-07 15:27 38.50600 -0.01368 18160 ft 363 kts
2026-05-07 15:28 38.53129 -0.01302 18764 ft 365 kts
2026-05-07 15:28 38.55683 -0.01289 19360 ft 369 kts
2026-05-07 15:28 38.58260 -0.01278 19945 ft 372 kts
2026-05-07 15:28 38.60823 -0.01264 20511 ft 375 kts
2026-05-07 15:29 38.63442 -0.01249 21075 ft 378 kts
2026-05-07 15:29 38.66089 -0.01233 21589 ft 383 kts
2026-05-07 15:29 38.68765 -0.01217 22122 ft 386 kts
2026-05-07 15:29 38.71463 -0.01199 22637 ft 390 kts
2026-05-07 15:30 38.74184 -0.01180 23158 ft 392 kts
2026-05-07 15:30 38.76921 -0.01164 23665 ft 395 kts
2026-05-07 15:30 38.79678 -0.01148 24145 ft 397 kts
2026-05-07 15:30 38.82413 -0.01130 24620 ft 399 kts
2026-05-07 15:31 38.85201 -0.01109 25052 ft 402 kts
2026-05-07 15:31 38.88007 -0.01090 25494 ft 404 kts
2026-05-07 15:31 38.90831 -0.01070 25903 ft 407 kts
2026-05-07 15:31 38.93668 -0.01050 26298 ft 409 kts
2026-05-07 15:32 38.96524 -0.01030 26685 ft 412 kts
2026-05-07 15:32 38.99397 -0.01014 27063 ft 414 kts
2026-05-07 15:32 39.02283 -0.00996 27433 ft 416 kts
2026-05-07 15:32 39.05149 -0.00977 27789 ft 418 kts
2026-05-07 15:33 39.08068 -0.00956 28138 ft 421 kts
2026-05-07 15:33 39.11001 -0.00935 28484 ft 423 kts
2026-05-07 15:33 39.13953 -0.00916 28813 ft 425 kts
2026-05-07 15:33 39.16914 -0.00896 29130 ft 427 kts
2026-05-07 15:34 39.19895 -0.00874 29438 ft 429 kts
2026-05-07 15:34 39.22885 -0.00856 29749 ft 431 kts
2026-05-07 15:34 39.25892 -0.00842 30033 ft 433 kts
2026-05-07 15:34 39.28872 -0.00825 30311 ft 435 kts
2026-05-07 15:35 39.31899 -0.00807 30576 ft 436 kts
2026-05-07 15:35 39.34937 -0.00562 30835 ft 438 kts
2026-05-07 15:35 39.37922 0.00254 31089 ft 440 kts 16°
2026-05-07 15:35 39.40868 0.01353 31320 ft 441 kts 16°
2026-05-07 15:36 39.43824 0.02450 31557 ft 443 kts 16°
2026-05-07 15:36 39.46782 0.03543 31883 ft 442 kts 16°
2026-05-07 15:36 39.49698 0.04617 32198 ft 441 kts 16°
2026-05-07 15:36 39.52644 0.05701 32516 ft 440 kts 16°
2026-05-07 15:37 39.55588 0.06784 32824 ft 439 kts 16°
2026-05-07 15:37 39.58525 0.07867 33129 ft 439 kts 16°
2026-05-07 15:37 39.61460 0.08955 33432 ft 438 kts 16°
2026-05-07 15:37 39.64391 0.10044 33733 ft 438 kts 16°
2026-05-07 15:38 39.67316 0.11132 34027 ft 437 kts 16°
2026-05-07 15:38 39.70236 0.12218 34333 ft 436 kts 16°
2026-05-07 15:38 39.73152 0.13307 34630 ft 436 kts 16°
2026-05-07 15:38 39.76022 0.14382 34911 ft 435 kts 16°
2026-05-07 15:39 39.78932 0.15470 35185 ft 434 kts 16°
2026-05-07 15:39 39.81834 0.16553 35448 ft 434 kts 16°
2026-05-07 15:39 39.84735 0.17634 35700 ft 433 kts 16°
2026-05-07 15:39 39.87634 0.18717 35927 ft 433 kts 16°
2026-05-07 15:40 39.93405 0.20874 36009 ft 430 kts 16°
2026-05-07 15:40 39.99144 0.23024 36008 ft 429 kts 16°
2026-05-07 15:41 40.04834 0.25159 36009 ft 429 kts 16°
2026-05-07 15:41 40.10566 0.27306 36009 ft 429 kts 16°
2026-05-07 15:42 40.16296 0.29464 36012 ft 429 kts 16°
2026-05-07 15:42 40.21989 0.31617 36011 ft 429 kts 16°
2026-05-07 15:43 40.27719 0.33777 36009 ft 429 kts 16°
2026-05-07 15:43 40.33451 0.35940 36008 ft 429 kts 16°
2026-05-07 15:44 40.39181 0.38121 36005 ft 429 kts 16°
2026-05-07 15:44 40.44912 0.40308 36010 ft 429 kts 16°
2026-05-07 15:45 40.50607 0.42479 36009 ft 429 kts 16°
2026-05-07 15:45 40.56343 0.44665 36010 ft 429 kts 16°
2026-05-07 15:46 40.64946 0.47957 36011 ft 429 kts 16°
2026-05-07 15:47 40.70647 0.50147 36009 ft 430 kts 16°
2026-05-07 15:47 40.76386 0.52355 36013 ft 430 kts 16°
2026-05-07 15:48 40.82125 0.54561 36015 ft 429 kts 16°
2026-05-07 15:48 40.87863 0.56766 36012 ft 430 kts 16°
2026-05-07 15:49 40.93565 0.58966 36004 ft 430 kts 16°
2026-05-07 15:49 40.99314 0.61199 36004 ft 431 kts 16°
2026-05-07 15:50 41.05067 0.63436 36016 ft 431 kts 16°
2026-05-07 15:50 41.10815 0.65661 36021 ft 430 kts 16°
2026-05-07 15:51 41.16555 0.67894 36021 ft 430 kts 16°
2026-05-07 15:51 41.22259 0.70113 36013 ft 430 kts 16°
2026-05-07 15:52 41.28003 0.72357 36011 ft 431 kts 16°
2026-05-07 15:52 41.33756 0.74612 36009 ft 431 kts 16°
2026-05-07 15:53 41.39515 0.76868 36004 ft 432 kts 16°
2026-05-07 15:53 41.45241 0.79117 36012 ft 432 kts 16°
2026-05-07 15:54 41.51009 0.81387 36016 ft 432 kts 16°
2026-05-07 15:54 41.56769 0.83663 36022 ft 432 kts 16°
2026-05-07 15:55 41.62492 0.85922 36023 ft 431 kts 16°
2026-05-07 15:55 41.68245 0.88192 36024 ft 431 kts 16°
2026-05-07 15:56 41.73994 0.90472 36024 ft 431 kts 17°
2026-05-07 15:56 41.79744 0.92754 36023 ft 431 kts 16°
2026-05-07 15:57 41.85457 0.95016 36021 ft 431 kts 16°
2026-05-07 15:57 41.91208 0.97303 36017 ft 431 kts 17°
2026-05-07 15:58 41.96966 0.99612 36012 ft 432 kts 17°
2026-05-07 15:58 42.02733 1.01915 36004 ft 433 kts 17°
2026-05-07 15:59 42.08476 1.04218 35999 ft 434 kts 17°
2026-05-07 15:59 42.14335 1.06131 36011 ft 434 kts
2026-05-07 16:00 42.20354 1.05945 36005 ft 434 kts 355°
2026-05-07 16:00 42.26379 1.05282 36000 ft 435 kts 355°
2026-05-07 16:01 42.32417 1.04634 36011 ft 435 kts 355°
2026-05-07 16:01 42.38415 1.03990 36006 ft 436 kts 355°
2026-05-07 16:02 42.44467 1.03333 35986 ft 438 kts 355°
2026-05-07 16:02 42.50554 1.02678 35981 ft 440 kts 355°
2026-05-07 16:03 42.56670 1.02012 35981 ft 442 kts 355°
2026-05-07 16:03 42.62774 1.01347 35995 ft 443 kts 355°
2026-05-07 16:04 42.68930 1.00675 36003 ft 444 kts 355°
2026-05-07 16:04 42.75086 0.99994 36004 ft 444 kts 355°
2026-05-07 16:05 42.81244 0.99306 36021 ft 444 kts 355°
2026-05-07 16:05 42.87346 0.98630 36040 ft 441 kts 355°
2026-05-07 16:06 42.93449 0.97964 36039 ft 439 kts 355°
2026-05-07 16:06 42.99525 0.97299 36035 ft 437 kts 355°
2026-05-07 16:07 43.05582 0.96621 36038 ft 436 kts 355°
2026-05-07 16:07 43.11610 0.95955 36037 ft 434 kts 355°
2026-05-07 16:08 43.17576 0.95303 36035 ft 432 kts 355°
2026-05-07 16:08 43.23573 0.94639 36031 ft 432 kts 355°
2026-05-07 16:09 43.29554 0.93963 36028 ft 431 kts 355°
2026-05-07 16:09 43.35533 0.93289 36024 ft 431 kts 355°
2026-05-07 16:10 43.41465 0.92629 36024 ft 430 kts 355°
2026-05-07 16:10 43.47435 0.91972 36023 ft 430 kts 355°
2026-05-07 16:11 43.53401 0.91300 36021 ft 430 kts 355°
2026-05-07 16:11 43.59360 0.90620 36019 ft 430 kts 355°
2026-05-07 16:12 43.65276 0.89945 36018 ft 429 kts 355°
2026-05-07 16:12 43.71231 0.89275 36017 ft 429 kts 355°
2026-05-07 16:13 43.77185 0.88613 36016 ft 429 kts 355°
2026-05-07 16:13 43.83135 0.87941 36014 ft 429 kts 355°
2026-05-07 16:14 43.88996 0.86783 36013 ft 429 kts 343°
2026-05-07 16:14 43.94499 0.83632 36009 ft 429 kts 335°
2026-05-07 16:15 43.99908 0.80137 36006 ft 429 kts 335°
2026-05-07 16:15 44.05314 0.76648 36006 ft 429 kts 335°
2026-05-07 16:16 44.10685 0.73167 36007 ft 429 kts 335°
2026-05-07 16:16 44.16093 0.69663 36012 ft 428 kts 335°
2026-05-07 16:17 44.21497 0.66157 36008 ft 428 kts 335°
2026-05-07 16:17 44.26896 0.62642 36006 ft 428 kts 335°
2026-05-07 16:18 44.32258 0.59132 36007 ft 429 kts 335°
2026-05-07 16:18 44.37659 0.55591 36008 ft 429 kts 335°
2026-05-07 16:19 44.43064 0.52052 36012 ft 429 kts 335°
2026-05-07 16:19 44.48461 0.48506 36011 ft 429 kts 335°
2026-05-07 16:20 44.53850 0.44925 36011 ft 428 kts 334°
2026-05-07 16:20 44.59198 0.41359 36012 ft 428 kts 334°
2026-05-07 16:21 44.64581 0.37777 36010 ft 428 kts 334°
2026-05-07 16:21 44.69959 0.34188 36005 ft 428 kts 334°
2026-05-07 16:22 44.75335 0.30597 36001 ft 428 kts 334°
2026-05-07 16:22 44.80706 0.26995 36001 ft 428 kts 334°
2026-05-07 16:23 44.86041 0.23407 36002 ft 428 kts 334°
2026-05-07 16:23 44.91412 0.19794 35999 ft 428 kts 334°
2026-05-07 16:24 44.96784 0.16174 36001 ft 428 kts 334°
2026-05-07 16:24 45.02149 0.12545 36007 ft 428 kts 334°
2026-05-07 16:25 45.07489 0.08930 36005 ft 428 kts 334°
2026-05-07 16:25 45.12860 0.05286 36010 ft 428 kts 334°
2026-05-07 16:26 45.18234 0.01638 36008 ft 428 kts 334°
2026-05-07 16:26 45.23599 -0.02012 36007 ft 428 kts 334°
2026-05-07 16:27 45.28967 -0.05678 36008 ft 428 kts 334°
2026-05-07 16:27 45.34294 -0.09331 36003 ft 428 kts 334°
2026-05-07 16:28 45.39660 -0.13006 36003 ft 428 kts 334°
2026-05-07 16:28 45.45024 -0.16690 36006 ft 428 kts 334°
2026-05-07 16:29 45.50390 -0.20382 36006 ft 428 kts 334°
2026-05-07 16:29 45.55711 -0.24057 36006 ft 428 kts 334°
2026-05-07 16:29 45.58395 -0.25914 35899 ft 429 kts 334°
2026-05-07 16:30 45.61077 -0.27772 35650 ft 428 kts 334°
2026-05-07 16:30 45.63760 -0.29632 35007 ft 431 kts 334°
2026-05-07 16:30 45.66379 -0.31736 34131 ft 434 kts 326°
2026-05-07 16:30 45.68793 -0.34334 33380 ft 434 kts 321°
2026-05-07 16:31 45.71147 -0.36993 32847 ft 429 kts 322°
2026-05-07 16:31 45.73480 -0.39627 32261 ft 425 kts 322°
2026-05-07 16:31 45.75764 -0.42203 31691 ft 422 kts 322°
2026-05-07 16:31 45.78058 -0.44788 31120 ft 418 kts 322°
2026-05-07 16:32 45.80336 -0.47359 30559 ft 415 kts 322°
2026-05-07 16:32 45.82591 -0.49909 30013 ft 412 kts 321°
2026-05-07 16:32 45.84829 -0.52446 29457 ft 408 kts 321°
2026-05-07 16:32 45.87045 -0.54959 28913 ft 405 kts 321°
2026-05-07 16:33 45.89248 -0.57460 28380 ft 402 kts 321°
2026-05-07 16:33 45.91400 -0.59905 27856 ft 398 kts 321°
2026-05-07 16:33 45.93563 -0.62366 27338 ft 395 kts 321°
2026-05-07 16:33 45.95704 -0.64803 26837 ft 391 kts 321°
2026-05-07 16:34 45.97824 -0.67218 26344 ft 387 kts 321°
2026-05-07 16:34 45.99926 -0.69618 25870 ft 384 kts 321°
2026-05-07 16:34 46.02005 -0.71996 25405 ft 380 kts 321°
2026-05-07 16:34 46.04062 -0.74350 24946 ft 376 kts 321°
2026-05-07 16:35 46.06104 -0.76682 24493 ft 373 kts 321°
2026-05-07 16:35 46.08099 -0.78964 24042 ft 369 kts 321°
2026-05-07 16:35 46.10098 -0.81254 23581 ft 366 kts 321°
2026-05-07 16:35 46.12078 -0.83528 23125 ft 363 kts 321°
2026-05-07 16:36 46.14046 -0.85786 22671 ft 360 kts 321°
2026-05-07 16:36 46.15999 -0.88029 22189 ft 358 kts 321°
2026-05-07 16:36 46.17939 -0.90265 21722 ft 356 kts 321°
2026-05-07 16:36 46.19867 -0.92490 21257 ft 354 kts 321°
2026-05-07 16:37 46.21781 -0.94702 20785 ft 352 kts 321°
2026-05-07 16:37 46.23686 -0.96903 20312 ft 350 kts 321°
2026-05-07 16:37 46.25557 -0.99059 19849 ft 348 kts 321°
2026-05-07 16:37 46.27448 -1.01239 19380 ft 347 kts 321°
2026-05-07 16:38 46.29318 -1.03397 19107 ft 339 kts 321°
2026-05-07 16:38 46.31126 -1.05491 18971 ft 327 kts 321°
2026-05-07 16:38 46.32881 -1.07530 18718 ft 321 kts 321°
2026-05-07 16:38 46.34612 -1.09542 18364 ft 318 kts 321°
2026-05-07 16:39 46.35754 -1.10869 18118 ft 317 kts 321°
2026-05-07 16:39 46.37465 -1.12858 17747 ft 315 kts 321°
2026-05-07 16:39 46.39172 -1.14843 17378 ft 313 kts 321°
2026-05-07 16:39 46.40865 -1.16813 17014 ft 311 kts 321°
2026-05-07 16:40 46.43094 -1.19405 16539 ft 309 kts 321°
2026-05-07 16:40 46.44766 -1.21353 16178 ft 308 kts 321°
2026-05-07 16:40 46.45891 -1.22667 15952 ft 307 kts 321°
2026-05-07 16:40 46.48081 -1.25228 15494 ft 304 kts 321°
2026-05-07 16:41 46.49170 -1.26504 15267 ft 303 kts 321°
2026-05-07 16:41 46.50809 -1.28424 14925 ft 302 kts 321°
2026-05-07 16:41 46.52437 -1.30333 14584 ft 300 kts 321°
2026-05-07 16:41 46.54059 -1.32238 14242 ft 299 kts 321°
2026-05-07 16:42 46.55672 -1.34130 13903 ft 297 kts 321°
2026-05-07 16:42 46.57279 -1.36014 13562 ft 296 kts 321°
2026-05-07 16:42 46.58896 -1.37850 13221 ft 294 kts 326°
2026-05-07 16:42 46.60663 -1.39245 12889 ft 293 kts 338°
2026-05-07 16:43 46.62599 -1.40123 12535 ft 291 kts 346°
2026-05-07 16:43 46.64558 -1.40863 12181 ft 290 kts 345°
2026-05-07 16:43 46.66498 -1.41603 11831 ft 288 kts 345°
2026-05-07 16:43 46.68439 -1.42345 11478 ft 287 kts 345°
2026-05-07 16:44 46.70939 -1.43535 11008 ft 285 kts 333°
2026-05-07 16:44 46.72088 -1.44521 10766 ft 284 kts 324°
2026-05-07 16:44 46.73630 -1.46282 10525 ft 277 kts 321°
2026-05-07 16:44 46.75111 -1.47996 10389 ft 264 kts 321°
2026-05-07 16:45 46.76486 -1.49586 10268 ft 250 kts 321°
2026-05-07 16:45 46.77826 -1.51131 10138 ft 241 kts 321°
2026-05-07 16:45 46.79106 -1.52607 9990 ft 228 kts 321°
2026-05-07 16:45 46.80329 -1.54015 9854 ft 219 kts 321°
2026-05-07 16:46 46.81508 -1.55377 9617 ft 215 kts 321°
2026-05-07 16:46 46.82674 -1.56726 9352 ft 213 kts 321°
2026-05-07 16:46 46.83830 -1.58066 9089 ft 212 kts 321°
2026-05-07 16:46 46.84983 -1.59404 8846 ft 211 kts 321°
2026-05-07 16:47 46.86132 -1.60736 8594 ft 210 kts 321°
2026-05-07 16:47 46.87261 -1.62043 8370 ft 208 kts 321°
2026-05-07 16:47 46.88397 -1.63359 8007 ft 213 kts 321°
2026-05-07 16:47 46.89579 -1.64727 7432 ft 220 kts 321°
2026-05-07 16:48 46.90793 -1.66135 6845 ft 227 kts 321°
2026-05-07 16:48 46.92064 -1.67616 6228 ft 239 kts 321°
2026-05-07 16:48 46.93372 -1.69140 5580 ft 242 kts 321°
2026-05-07 16:48 46.94687 -1.70672 5015 ft 240 kts 321°
2026-05-07 16:49 46.95975 -1.72169 4486 ft 238 kts 321°
2026-05-07 16:49 46.97364 -1.73433 3934 ft 235 kts 344°
2026-05-07 16:49 46.98968 -1.73418 3468 ft 235 kts 19°
2026-05-07 16:49 47.00440 -1.72397 3104 ft 234 kts 28°
2026-05-07 16:50 47.01872 -1.71288 2774 ft 229 kts 27°
2026-05-07 16:50 47.03248 -1.70237 2480 ft 218 kts 27°
2026-05-07 16:50 47.04558 -1.69244 2224 ft 204 kts 27°
2026-05-07 16:50 47.05764 -1.68330 1950 ft 183 kts 27°
2026-05-07 16:51 47.06815 -1.67534 1718 ft 159 kts 27°
2026-05-07 16:51 47.07741 -1.66831 1516 ft 147 kts 27°
2026-05-07 16:51 47.08629 -1.66158 1326 ft 142 kts 27°
2026-05-07 16:51 47.09498 -1.65499 1144 ft 140 kts 27°
2026-05-07 16:52 47.10359 -1.64845 954 ft 139 kts 27°
2026-05-07 16:52 47.11214 -1.64195 772 ft 138 kts 27°
2026-05-07 16:52 47.12067 -1.63547 589 ft 138 kts 27°
2026-05-07 16:52 47.12918 -1.62899 406 ft 137 kts 27°
2026-05-07 16:53 47.13763 -1.62247 230 ft 137 kts 28°
2026-05-07 16:53 47.14582 -1.61608 97 ft 122 kts 28°
2026-05-07 16:53 47.15087 -1.61230 94 ft 38 kts 27°
2026-05-07 16:53 47.15240 -1.61115 98 ft 28 kts 27°
2026-05-07 16:54 47.15420 -1.60983 95 ft 30 kts 26°
2026-05-07 16:54 47.15608 -1.60842 95 ft 24 kts 26°
2026-05-07 16:54 47.15653 -1.60684 100 ft 17 kts 118°
2026-05-07 16:54 47.15638 -1.60651 99 ft 0 kts 127°
2026-05-07 16:56 47.15638 -1.60650 99 ft 1 kts 127°
2026-05-07 16:56 47.15607 -1.60619 100 ft 7 kts 162°
2026-05-07 16:56 47.15460 -1.60697 96 ft 10 kts 201°
2026-05-07 16:57 47.15413 -1.60648 95 ft 7 kts 139°
2026-05-07 16:57 47.15357 -1.60616 97 ft 3 kts 155°